KF5CFW Weather Reports


time (UTC)temp
C
wind
direction
speed
KPH
gust
KPH
rain 1hr
cm
rain 24hr
cm
rain mn
cm
humidity
%
barometer
mb
20201203154518 6 277 0.0 1.6 0.00 0.00 0.00 78 1024.8
20201203153213 6 333 0.0 1.6 0.00 0.00 0.00 79 1024.6
20201203151722 6 305 0.0 1.6 0.00 0.00 0.00 78 1024.5
20201203150111 6 328 0.0 3.2 0.00 0.00 0.00 79 1024.2
20201203144643 5 325 0.0 1.6 0.00 0.00 0.00 79 1023.9
20201203143143 5 61 0.0 1.6 0.00 0.00 0.00 79 1023.8
20201203141633 5 342 0.0 1.6 0.00 0.00 0.00 79 1023.6
20201203140157 5 330 0.0 0.0 0.00 0.00 0.00 79 1023.5
20201203134631 5 346 0.0 0.0 0.00 0.00 0.00 79 1023.4
20201203133157 5 347 0.0 1.6 0.00 0.00 0.00 79 1023.2
20201203131603 5 299 0.0 1.6 0.00 0.00 0.00 79 1023.0
20201203130138 4 316 0.0 0.0 0.00 0.00 0.00 79 1022.8
20201203124620 4 316 0.0 0.0 0.00 0.00 0.00 79 1022.4
20201203123047 4 316 0.0 1.6 0.00 0.00 0.00 78 1022.2
20201203121717 4 316 0.0 1.6 0.00 0.00 0.00 78 1022.0
20201203120215 4 315 0.0 0.0 0.00 0.00 0.00 79 1022.0
20201203114554 4 318 0.0 0.0 0.00 0.00 0.00 80 1022.0
20201203113146 3 300 0.0 0.0 0.00 0.00 0.00 81 1022.0
20201203111551 3 300 0.0 1.6 0.00 0.00 0.00 82 1021.8
20201203110051 3 300 0.0 0.0 0.00 0.00 0.00 83 1022.0
20201203104559 2 300 0.0 0.0 0.00 0.00 0.00 84 1022.0
20201203103111 2 299 0.0 0.0 0.00 0.00 0.00 85 1021.9
20201203101604 2 299 0.0 0.0 0.00 0.00 0.00 85 1021.9
20201203100039 1 300 0.0 0.0 0.00 0.00 0.00 84 1022.0
20201203094545 1 300 0.0 0.0 0.00 0.00 0.00 84 1021.9
20201203093112 1 300 0.0 0.0 0.00 0.00 0.00 84 1022.2
20201203091602 1 299 0.0 0.0 0.00 0.00 0.00 83 1022.2
20201203090043 1 300 0.0 0.0 0.00 0.00 0.00 82 1022.2
20201203084557 2 300 0.0 0.0 0.00 0.00 0.00 81 1022.2
20201203083025 2 299 0.0 0.0 0.00 0.00 0.00 80 1022.2
20201203081521 2 300 0.0 0.0 0.00 0.00 0.00 79 1022.1
20201203080107 3 301 0.0 0.0 0.00 0.00 0.00 78 1022.1
20201203074605 3 301 0.0 1.6 0.00 0.00 0.00 77 1022.1
20201203073031 3 328 0.0 0.0 0.00 0.00 0.00 76 1022.0
20201203071553 3 333 0.0 1.6 0.00 0.00 0.00 76 1022.3
20201203070020 3 332 0.0 1.6 0.00 0.00 0.00 76 1022.4
20201203064518 3 276 0.0 1.6 0.00 0.00 0.00 76 1022.5
20201203063014 3 281 0.0 0.0 0.00 0.00 0.00 76 1022.4
20201203061510 4 343 0.0 0.0 0.00 0.00 0.00 74 1022.4
20201203060337 4 287 0.0 1.6 0.00 0.00 0.00 73 1022.4
20201203054711 4 320 0.0 1.6 0.00 0.00 0.00 73 1022.7
20201203053127 4 349 0.0 3.2 0.00 0.00 0.00 72 1022.7
20201203051723 4 297 0.0 4.8 0.00 0.00 0.00 73 1022.7
20201203050128 4 249 0.0 1.6 0.00 0.00 0.00 72 1022.8
20201203044641 5 287 0.0 1.6 0.00 0.00 0.00 72 1022.7
20201203041641 5 257 0.0 1.6 0.00 0.00 0.00 73 1022.8
20201203040147 5 281 0.0 1.6 0.00 0.00 0.00 72 1022.8
20201203034719 5 293 0.0 0.0 0.00 0.00 0.00 70 1022.9
20201203033155 5 294 0.0 1.6 0.00 0.00 0.00 69 1022.9
20201203031719 6 300 0.0 1.6 0.00 0.00 0.00 67 1023.0
20201203030111 6 332 0.0 3.2 0.00 0.00 0.00 66 1022.9
20201203024604 6 345 0.0 1.6 0.00 0.00 0.00 66 1022.8
20201203023042 6 259 0.0 1.6 0.00 0.00 0.00 65 1022.8
20201203021601 7 309 0.0 4.8 0.00 0.00 0.00 64 1022.5
20201203020104 7 279 0.0 3.2 0.00 0.00 0.00 63 1022.4
20201203014604 7 234 0.0 3.2 0.00 0.00 0.00 63 1022.3
20201203013049 7 20 0.0 1.6 0.00 0.00 0.00 63 1022.0
20201203010130 8 290 0.0 4.8 0.00 0.00 0.00 63 1021.6
20201203004616 8 273 0.0 8.0 0.00 0.00 0.00 64 1021.5
20201203003031 8 259 0.0 1.6 0.00 0.00 0.00 65 1021.3
20201203001544 8 280 0.0 1.6 0.00 0.00 0.00 66 1021.1
20201203000114 8 291 0.0 1.6 0.00 0.00 0.00 65 1020.9
20201202234610 8 294 0.0 1.6 0.00 0.00 0.00 63 1020.7
20201202233125 9 320 0.0 3.2 0.00 0.00 0.00 62 1020.3
20201202231544 10 285 0.0 3.2 0.00 0.00 0.00 61 1020.1
20201202230050 10 20 0.0 1.6 0.00 0.00 0.00 59 1020.0
20201202224539 11 287 0.0 4.8 0.00 0.00 0.00 58 1019.8
20201202223038 11 291 0.0 3.2 0.00 0.00 0.00 58 1019.7
20201202221520 11 330 0.0 1.6 0.00 0.00 0.00 57 1019.4
20201202220032 12 302 0.0 3.2 0.00 0.00 0.00 56 1019.3
20201202214520 12 254 0.0 3.2 0.00 0.00 0.00 55 1019.2
20201202213200 12 296 0.0 3.2 0.00 0.00 0.00 55 1019.0
20201202211651 12 300 0.0 3.2 0.00 0.00 0.00 52 1018.8
20201202210304 12 294 0.0 3.2 0.00 0.00 0.00 51 1018.7
20201202204633 13 255 0.0 3.2 0.00 0.00 0.00 50 1018.5
20201202203205 13 304 0.0 3.2 0.00 0.00 0.00 50 1018.4
20201202201706 12 252 0.0 4.8 0.00 0.00 0.00 52 1018.3
20201202200307 12 290 0.0 3.2 0.00 0.00 0.00 51 1018.4
20201202194752 13 256 0.0 3.2 0.00 0.00 0.00 50 1018.3
20201202193313 12 40 0.0 4.8 0.00 0.00 0.00 54 1018.3
20201202191659 12 286 0.0 4.8 0.00 0.00 0.00 53 1018.5
20201202190216 12 304 0.0 3.2 0.00 0.00 0.00 53 1018.5
20201202184641 12 308 0.0 1.6 0.00 0.00 0.00 60 1018.4
20201202183216 13 231 0.0 1.6 0.00 0.00 0.00 67 1018.3
20201202181627 12 302 0.0 1.6 0.00 0.00 0.00 74 1018.6
20201202180130 12 236 0.0 6.4 0.00 0.00 0.00 73 1018.6
20201202174624 12 252 0.0 3.2 0.00 0.00 0.00 77 1018.7
20201202173132 13 258 0.0 6.4 0.00 0.00 0.00 76 1018.7
20201202171707 13 205 0.0 1.6 0.00 0.00 0.00 81 1018.6
20201202170214 12 212 0.0 1.6 0.00 0.00 0.00 83 1018.9
20201202164652 12 240 0.0 1.6 0.00 0.00 0.00 84 1018.9
20201202163240 12 210 0.0 1.6 0.00 0.00 0.00 84 1018.9
20201202161648 12 141 0.0 1.6 0.00 0.00 0.00 85 1018.8
20201202160103 11 136 0.0 1.6 0.00 0.00 0.00 86 1018.8